Weather History for Rapid City, SD

Change the Weather History Date:

Monday, July 22, 2013

  Actual Average Record
Temperature  
Mean Temperature 75 °F 74 °F  
Max Temperature 88 °F 88 °F 106 °F (2007)
Min Temperature 62 °F 59 °F 50 °F (1949)
Degree Days  
Heating Degree Days 0 0  
Month to date heating degree days 0 10  
Since 1 June heating degree days 80 109  
Since 1 July heating degree days 0 10  
Cooling Degree Days 10 9  
Month to date cooling degree days 225 169  
Year to date cooling degree days 303 268  
Since 1 June cooling degree days 295 253  
Growing Degree Days 25 (Base 50)    
Moisture  
Dew Point 56 °F    
Average Humidity 60    
Maximum Humidity 90    
Minimum Humidity 29    
Precipitation  
Precipitation T in 0.06 in 0.30 in (2014)
Month to date precipitation 1.61 1.25  
Year to date precipitation 11.39 10.47  
Snow  
Snow 0.00 in 0.00 in - ()
Month to date snowfall 0.0 0.0  
Since 1 June snowfall 0.0 0.0  
Since 1 July snowfall 0.0 0.0  
Snow Depth 0.00 in    
Sea Level Pressure  
Sea Level Pressure 29.86 in    
Wind  
Wind Speed 10 mph (ESE)    
Max Wind Speed 25 mph    
Max Gust Speed 32 mph    
Visibility 10 miles    
Events Rain , Thunderstorm    
T = Trace of Precipitation, MM = Missing Value Source: NWS Daily Summary

Daily Weather History Graph

Daily Weather History Graph

Search for Another Location

Airport:

Trip Planner

Search our weather history database for the weather conditions in past years. The results will help you decide how hot, cold, wet, or windy it might be!

Date:

Astronomy

Jul. 22, 2013 Rise Set
Actual Time 5:30 AM MDT 8:26 PM MDT
Civil Twilight 4:55 AM MDT 9:00 PM MDT
Nautical Twilight 4:12 AM MDT 9:44 PM MDT
Astronomical Twilight 3:20 AM MDT 10:35 PM MDT
Moon 8:10 PM MDT (7/22) 5:31 AM MDT (7/22)
Length of Visible Light 16h 04m
Length of Day
14h 56m
Full, 100% of the Moon is Illuminated
Jul 22
Full
Jul 22
Full
Jul 29
Last Quarter
Aug 6
New
Aug 14
First Quarter

Hourly Weather History & Observations

Time (MDT) Temp. Heat Index Dew Point Humidity Pressure Visibility Wind Dir Wind Speed Gust Speed Precip Events Conditions
12:52 AM 71.1 °F - 57.0 °F 61% 29.81 in 10.0 mi NW 12.7 mph - N/A   Clear
1:52 AM 69.1 °F - 61.0 °F 75% 29.83 in 10.0 mi North 11.5 mph - N/A   Clear
2:52 AM 66.0 °F - 61.0 °F 84% 29.84 in 10.0 mi NNW 11.5 mph - N/A   Clear
3:52 AM 64.9 °F - 61.0 °F 87% 29.85 in 10.0 mi North 9.2 mph - N/A   Clear
4:52 AM 62.1 °F - 59.0 °F 90% 29.84 in 10.0 mi NNW 11.5 mph - N/A   Clear
5:52 AM 62.1 °F - 59.0 °F 90% 29.84 in 10.0 mi NNW 10.4 mph - N/A   Clear
6:52 AM 66.0 °F - 59.0 °F 78% 29.86 in 10.0 mi NNW 8.1 mph - N/A   Clear
7:52 AM 70.0 °F - 57.9 °F 65% 29.88 in 10.0 mi North 6.9 mph - N/A   Clear
8:52 AM 73.9 °F - 57.9 °F 57% 29.90 in 10.0 mi Calm Calm - N/A   Clear
9:52 AM 75.9 °F - 55.9 °F 50% 29.89 in 10.0 mi SE 4.6 mph - N/A   Clear
10:52 AM 78.1 °F - 55.0 °F 45% 29.88 in 10.0 mi South 6.9 mph - N/A   Clear
11:52 AM 81.0 °F 80.5 °F 54.0 °F 39% 29.88 in 10.0 mi SSE 6.9 mph - N/A   Clear
12:52 PM 82.9 °F - 52.0 °F 34% 29.86 in 10.0 mi SSE 8.1 mph - N/A   Clear
1:52 PM 86.0 °F 84.2 °F 54.0 °F 33% 29.85 in 10.0 mi SE 10.4 mph 17.3 mph N/A   Clear
2:52 PM 86.0 °F - 51.1 °F 30% 29.86 in 10.0 mi SSE 9.2 mph - N/A   Clear
3:52 PM 87.1 °F - 51.1 °F 29% 29.84 in 10.0 mi SSE 8.1 mph - N/A   Clear
4:52 PM 87.1 °F - 52.0 °F 30% 29.81 in 10.0 mi SE 13.8 mph - N/A   Clear
5:52 PM 82.0 °F - 51.1 °F 34% 29.80 in 10.0 mi SE 10.4 mph - N/A   Clear
6:52 PM 80.1 °F - 50.0 °F 35% 29.83 in 10.0 mi ENE 5.8 mph - N/A   Clear
7:13 PM 78.8 °F - 51.8 °F 39% 29.94 in 10.0 mi North 10.4 mph - N/A Thunderstorm Scattered Clouds
7:52 PM 72.0 °F - 55.9 °F 57% 29.85 in 10.0 mi NE 11.5 mph - 0.00 in Thunderstorm Thunderstorm
8:52 PM 70.0 °F - 59.0 °F 68% 29.83 in 10.0 mi SSE 13.8 mph - 0.00 in Thunderstorm Thunderstorm
9:08 PM 69.8 °F - 59.0 °F 68% 29.90 in 10.0 mi East 8.1 mph - N/A   Partly Cloudy
9:27 PM 71.6 °F - 57.2 °F 60% 29.89 in 10.0 mi ESE 13.8 mph - N/A Thunderstorm Thunderstorm
9:52 PM 70.0 °F - 57.0 °F 63% 29.82 in 10.0 mi SSE 13.8 mph 24.2 mph 0.00 in Thunderstorm Thunderstorm
10:06 PM 68.0 °F - 57.2 °F 68% 29.91 in 10.0 mi SW 10.4 mph - N/A   Clear
10:52 PM 71.1 °F - 55.9 °F 59% 29.85 in 10.0 mi SSW 12.7 mph 19.6 mph N/A   Partly Cloudy
11:52 PM 71.1 °F - 55.9 °F 59% 29.85 in 10.0 mi SW 9.2 mph - N/A   Scattered Clouds